sat.trackr.live / text

‹ back to catalog

SJ-11-08

NORAD 40286 · 2014-066A

PAYLOAD ACTIVE UNKNOWN

§ Identity

Operator
Country
PRC
Launch date
2014-10-27
Launch site
JSC
Launch vehicle
Mass (kg)
RCS (m²)
2.16

External: N2YO · Heavens-Above · Gunter

§ Orbital elements

Epoch: 2026-09-10T05:13:21.442656Z

Period
98.21 min
Inclination
98.3635°
Eccentricity
0.0011459
Mean motion
14.66253443 rev/d
Perigee alt
665.0 km
Apogee alt
681.1 km
Semi-major
7,051.2 km
B*
5.5543e-5
RAAN
39.5891°
Arg perigee
331.0880°
Mean anomaly
28.9687°
Rev number
63,367

§ Raw data

SJ-11-081 40286U 14066A   26253.21760929  .00000255  00000+0  55543-4 0  99982 40286  98.3635  39.5891 0011459 331.0880  28.9687 14.66253443633677

JSON: /api/v1/satellites/40286 · /tle

For live sub-satellite position, see the globe view (requires WebGL).

§ Visibility from observer

Set your observer location to see the next 7 days of passes ≥ 10°. The values pass through the URL so the page stays shareable.

No JS? Fill the form by hand. The geolocation button needs JavaScript.